Regional Weather Roundup
Issued by NWS

Home | Current Version | Previous Version | Graphics & Text | Print | Product List | Glossary On
Versions: 1 2 3 4 5 6 7 8 9 10 11 12 13 14 15 16 17 18 19 20 21 22 23 24 25 26 27 28 29 30 31 32 33 34 35 36 37 38 39 40 41 42 43 44 45 46 47 48 49 50
000
ASUS43 KIND 021859
RWRIN

WEATHER ROUNDUP FOR INDIANA
NATIONAL WEATHER SERVICE INDIANAPOLIS IN
300 PM EDT SUN AUG 02 2015

NOTE: "FAIR" INDICATES FEW OR NO CLOUDS BELOW 12,000 FEET WITH NO
SIGNIFICANT WEATHER AND/OR OBSTRUCTIONS TO VISIBILITY.

* - STATION DOES NOT REPORT WEATHER SUCH AS PRECIPITATION OR FOG.

+ - STATION NOT QUALITY CONTROLLED BY THE NATIONAL WEATHER SERVICE.
    USE DATA WITH CAUTION...ESPECIALLY DEWPOINT AND RELATIVE
    HUMIDITY OBSERVATIONS.

INZ001>003-010>013-019-020-022000-
NORTHWEST INDIANA

CITY           SKY/WX    TMP DP  RH WIND       PRES   REMARKS
GARY /AIRPORT/ MOSUNNY   91  63  38 SW20G36   29.79F
MONTICELLO +   SUNNY     88  72  59 SW15G25   29.86F
RENSSELAER +   SUNNY     88  66  48 SW16G25   29.84F

$$

LMZ046-743>745-022000-
SOUTHERN LAKE MICHIGAN

STATION/POSITION TIME  TEMP    WIND        PRES    WAVE
                       AIR SEA DIR/SP/G            HT
                 (UTC) (F)     (DEG/KT/KT) (MB)    (FT)
BURNS HARBOR     1828   87     230/ 17/ 27 1009.5S
MICHIGAN CITY    1800   82     220/ 19/ 22   N/A
5NW MICH CITY    1800   80 74  250/ 10/ 14   N/A     3

$$

INZ004-005-014>016-021>024-022000-
NORTH CENTRAL INDIANA

CITY           SKY/WX    TMP DP  RH WIND       PRES   REMARKS
ELKHART        MOSUNNY   91  63  38 SW17G25   29.82F
GOSHEN         SUNNY     88  68  51 SW17G29   29.82F
SOUTH BEND     SUNNY     92  64  39 SW25G32   29.81F

$$

INZ006>009-017-018-025>027-022000-
NORTHEAST INDIANA

CITY           SKY/WX    TMP DP  RH WIND       PRES   REMARKS
ANGOLA *+      SUNNY     90  84  84 W15       29.84S HX 115
FORT WAYNE     MOSUNNY   89  63  41 SW16G25   29.87F

$$

INZ028-029-035-036-043>045-051>053-022000-
WEST CENTRAL INDIANA

CITY           SKY/WX    TMP DP  RH WIND       PRES   REMARKS
CRAWFORDSVL +  SUNNY     84  65  53 SW12G17     N/A
GREENCASTLE +  SUNNY     84  64  51 W3        29.93F
LAFAYETTE      SUNNY     88  71  57 SW14G20   29.87F
TERRE HAUTE    SUNNY     89  69  51 S9        29.92F

$$

INZ030>032-037>040-046>048-054>057-064-065-022000-
CENTRAL INDIANA

CITY           SKY/WX    TMP DP  RH WIND       PRES   REMARKS
COLUMBUS       SUNNY     86  50  28 SW9       29.95F
GREENWOOD *+   SUNNY     86  63  45 SW8       29.95F
INDIANAPOLIS   MOSUNNY   87  66  49 SW14      29.92F
-EAGLE CREEK   SUNNY     86  66  51 SW9G18    29.92F
KOKOMO *+      SUNNY     88  68  51 SW18      29.89F
MT COMFORT *+  SUNNY     86  59  39 SW9G17    29.94S
SHELBYVILLE    SUNNY     87  66  49 S12       29.94F

$$

INZ033-034-041-042-049-050-058-059-022000-
EAST CENTRAL INDIANA

CITY           SKY/WX    TMP DP  RH WIND       PRES   REMARKS
MUNCIE         SUNNY     85  65  51 SW13G21   29.91F

$$

INZ060-061-067>069-081>083-085>088-022000-
SOUTHWEST INDIANA

CITY           SKY/WX    TMP DP  RH WIND       PRES   REMARKS
EVANSVILLE     SUNNY     88  62  41 SW8       29.95F
HUNTINGBURG *+ SUNNY     88  63  42 SW8       29.96F

$$

INZ062-063-066-070>080-084-089>092-022000-
SOUTH CENTRAL AND SOUTHEAST INDIANA

CITY           SKY/WX    TMP DP  RH WIND       PRES   REMARKS
BLOOMINGTON    SUNNY     87  68  52 W8        29.95F
MADISON *+     SUNNY     86  55  35 SW6       29.99F
SEYMOUR +      SUNNY     88  59  37 SW5       29.95F

$$



USA.gov is the U.S. government's official web portal to all federal, state and local government web resources and services.